When you browse on this site, cookies collect data to enhance your experience and personalize the content and advertising you see.
Visit our Privacy Policy to learn more. By continuing to use the site, you agree to this use of cookies and data.
  • In United Kingdom
  • List of Countries
  • For 7 days
  • Water Temperature
  • Weather Map
  • Weather Widgets
  • user-avatar
    Login

    Hourly Weather Cuilapa

    Today, 1 June, Monday

    Time Temperature Precipitation Wind Pressure Humidity
    00:00 +22°C° 0 mm 1 mps 685 mmHg 94%
    01:00 +22°C° 0.1 mm 1 mps 685 mmHg 94%
    02:00 +22°C° 0.1 mm 1 mps 684 mmHg 94%
    03:00 +22°C° 0.1 mm 1 mps 684 mmHg 94%
    04:00 +22°C° 0.1 mm 1 mps 684 mmHg 95%
    05:00 +22°C° 0.1 mm 1 mps 684 mmHg 95%
    06:00 +21°C° 0.1 mm 1 mps 684 mmHg 95%
    07:00 +23°C° 0.3 mm 1 mps 685 mmHg 93%
    08:00 +24°C° 0.3 mm 1 mps 685 mmHg 91%
    09:00 +25°C° 0.3 mm 1 mps 686 mmHg 89%
    10:00 +25°C° 1.1 mm 1 mps 685 mmHg 89%
    11:00 +26°C° 1.1 mm 2 mps 685 mmHg 89%
    12:00 +26°C° 1.1 mm 2 mps 685 mmHg 88%
    13:00 +25°C° 1.1 mm 2 mps 685 mmHg 90%
    14:00 +25°C° 1.1 mm 2 mps 684 mmHg 91%
    15:00 +25°C° 1.1 mm 2 mps 684 mmHg 92%
    16:00 +24°C° 0.7 mm 1 mps 684 mmHg 94%
    17:00 +24°C° 0.7 mm 1 mps 684 mmHg 95%
    18:00 +23°C° 0.7 mm 1 mps 684 mmHg 97%
    19:00 +23°C° 0.2 mm 1 mps 684 mmHg 96%
    20:00 +23°C° 0.2 mm 1 mps 685 mmHg 96%
    21:00 +22°C° 0.2 mm 1 mps 685 mmHg 96%
    22:00 +22°C° 0.1 mm 1 mps 685 mmHg 96%
    23:00 +22°C° 0.1 mm 1 mps 685 mmHg 96%

    Tomorrow, 2 June, Tuesday

    Time Temperature Precipitation Wind Pressure Humidity
    00:00 +22°C° 0.1 mm 1 mps 685 mmHg 96%
    01:00 +22°C° 0.1 mm 1 mps 684 mmHg 95%
    02:00 +22°C° 0.1 mm 1 mps 684 mmHg 95%
    03:00 +22°C° 0.1 mm 1 mps 683 mmHg 94%
    04:00 +22°C° 0.5 mm 1 mps 683 mmHg 95%
    05:00 +22°C° 0.5 mm 1 mps 683 mmHg 95%
    06:00 +22°C° 0.5 mm 1 mps 683 mmHg 95%
    07:00 +21°C° 9.9 mm 2 mps 684 mmHg 96%
    08:00 +21°C° 9.9 mm 2 mps 684 mmHg 97%
    09:00 +21°C° 9.9 mm 2 mps 684 mmHg 98%
    10:00 +21°C° 4.2 mm 2 mps 684 mmHg 98%
    11:00 +21°C° 4.2 mm 2 mps 684 mmHg 98%
    12:00 +21°C° 4.2 mm 2 mps 684 mmHg 98%
    13:00 +21°C° 1.4 mm 2 mps 684 mmHg 98%
    14:00 +22°C° 1.4 mm 1 mps 683 mmHg 97%
    15:00 +22°C° 1.4 mm 1 mps 683 mmHg 97%
    16:00 +22°C° 1.6 mm 1 mps 683 mmHg 97%
    17:00 +21°C° 1.6 mm 1 mps 683 mmHg 98%
    18:00 +21°C° 1.6 mm 1 mps 683 mmHg 98%
    19:00 +21°C° 2.4 mm 1 mps 683 mmHg 98%
    20:00 +21°C° 2.4 mm 1 mps 684 mmHg 98%
    21:00 +21°C° 2.4 mm 1 mps 684 mmHg 98%
    22:00 +21°C° 2.9 mm 1 mps 684 mmHg 98%
    23:00 +21°C° 2.9 mm 1 mps 684 mmHg 97%

    Day after tomorrow, 3 June, Wednesday

    Time Temperature Precipitation Wind Pressure Humidity
    00:00 +21°C° 2.9 mm 1 mps 684 mmHg 96%
    01:00 +21°C° 1 mm 1 mps 684 mmHg 96%
    02:00 +21°C° 1 mm 1 mps 683 mmHg 97%
    03:00 +21°C° 1 mm 1 mps 683 mmHg 97%
    04:00 +21°C° 3.5 mm 1 mps 683 mmHg 97%
    05:00 +21°C° 3.5 mm 1 mps 683 mmHg 98%
    06:00 +21°C° 3.5 mm 1 mps 683 mmHg 98%
    07:00 +22°C° 0.2 mm 1 mps 684 mmHg 97%
    08:00 +22°C° 0.2 mm 1 mps 684 mmHg 95%
    09:00 +22°C° 0.2 mm 1 mps 684 mmHg 94%
    10:00 +23°C° 0.3 mm 1 mps 684 mmHg 91%
    11:00 +24°C° 0.3 mm 2 mps 684 mmHg 89%
    12:00 +24°C° 0.3 mm 2 mps 684 mmHg 87%
    13:00 +24°C° 0.7 mm 2 mps 683 mmHg 90%
    14:00 +23°C° 0.7 mm 1 mps 683 mmHg 93%
    15:00 +22°C° 0.7 mm 1 mps 682 mmHg 96%
    16:00 +22°C° 0.3 mm 1 mps 682 mmHg 96%
    17:00 +22°C° 0.3 mm 1 mps 682 mmHg 97%
    18:00 +22°C° 0.3 mm 1 mps 682 mmHg 97%
    19:00 +22°C° 2 mm 1 mps 683 mmHg 98%
    20:00 +22°C° 2 mm 1 mps 683 mmHg 98%
    21:00 +22°C° 2 mm 1 mps 684 mmHg 99%
    22:00 +22°C° 3.8 mm 1 mps 684 mmHg 99%
    23:00 +22°C° 3.8 mm 1 mps 683 mmHg 98%

    4 June, Thursday

    Time Temperature Precipitation Wind Pressure Humidity
    00:00 +22°C° 3.8 mm 1 mps 683 mmHg 98%
    01:00 +21°C° 0.1 mm 1 mps 683 mmHg 98%
    02:00 +19°C° 0.1 mm 0 mps 683 mmHg 98%
    03:00 +19°C° 0.1 mm 0 mps 682 mmHg 99%
    04:00 +19°C° 0 mm 0 mps 682 mmHg 98%
    05:00 +21°C° 0 mm 1 mps 683 mmHg 98%
    06:00 +21°C° 0 mm 1 mps 683 mmHg 98%
    07:00 +21°C° 4 mm 1 mps 683 mmHg 98%
    08:00 +22°C° 4 mm 1 mps 683 mmHg 98%
    09:00 +22°C° 4 mm 1 mps 684 mmHg 98%
    10:00 +22°C° 2.5 mm 1 mps 683 mmHg 98%
    11:00 +22°C° 2.5 mm 1 mps 683 mmHg 97%
    12:00 +22°C° 2.5 mm 1 mps 683 mmHg 97%
    13:00 +22°C° 1.8 mm 1 mps 683 mmHg 98%
    14:00 +22°C° 1.8 mm 1 mps 682 mmHg 98%
    15:00 +21°C° 1.8 mm 2 mps 682 mmHg 98%
    16:00 +22°C° 1.9 mm 1 mps 682 mmHg 98%
    17:00 +22°C° 1.9 mm 1 mps 682 mmHg 98%
    18:00 +22°C° 1.9 mm 1 mps 682 mmHg 98%
    19:00 +22°C° 1.4 mm 1 mps 683 mmHg 98%
    20:00 +22°C° 1.4 mm 1 mps 683 mmHg 99%
    21:00 +22°C° 1.4 mm 1 mps 684 mmHg 99%
    22:00 +22°C° 1.4 mm 1 mps 684 mmHg 99%
    23:00 +22°C° 1.4 mm 1 mps 684 mmHg 99%

    5 June, Friday

    Time Temperature Precipitation Wind Pressure Humidity
    00:00 +22°C° 1.4 mm 1 mps 684 mmHg 99%
    01:00 +22°C° 7.2 mm 1 mps 683 mmHg 99%
    02:00 +22°C° 7.2 mm 1 mps 683 mmHg 99%
    03:00 +22°C° 7.2 mm 1 mps 683 mmHg 99%
    04:00 +22°C° 15.7 mm 1 mps 683 mmHg 99%
    05:00 +22°C° 15.7 mm 1 mps 683 mmHg 99%
    06:00 +22°C° 15.7 mm 1 mps 683 mmHg 99%
    07:00 +22°C° 10.7 mm 1 mps 684 mmHg 99%
    08:00 +22°C° 10.7 mm 1 mps 684 mmHg 99%
    09:00 +22°C° 10.7 mm 1 mps 684 mmHg 99%
    10:00 +22°C° 8 mm 1 mps 684 mmHg 99%
    11:00 +22°C° 8 mm 1 mps 684 mmHg 99%
    12:00 +22°C° 8 mm 1 mps 684 mmHg 99%
    13:00 +22°C° 1.2 mm 1 mps 684 mmHg 99%
    14:00 +22°C° 1.2 mm 1 mps 683 mmHg 98%
    15:00 +22°C° 1.2 mm 1 mps 683 mmHg 98%
    16:00 +22°C° 0.4 mm 1 mps 683 mmHg 98%
    17:00 +22°C° 0.4 mm 1 mps 683 mmHg 98%
    18:00 +22°C° 0.4 mm 1 mps 683 mmHg 98%
    19:00 +22°C° 0.3 mm 1 mps 684 mmHg 97%
    20:00 +22°C° 0.3 mm 1 mps 684 mmHg 97%
    21:00 +21°C° 0.3 mm 1 mps 685 mmHg 97%
    22:00 +21°C° 0.3 mm 1 mps 685 mmHg 97%
    23:00 +21°C° 0.3 mm 1 mps 684 mmHg 97%

    6 June, Saturday

    Time Temperature Precipitation Wind Pressure Humidity
    00:00 +21°C° 0.3 mm 1 mps 684 mmHg 96%
    01:00 +21°C° 0.1 mm 1 mps 684 mmHg 97%
    02:00 +19°C° 0.1 mm 0 mps 684 mmHg 97%
    03:00 +19°C° 0.1 mm 0 mps 683 mmHg 97%
    04:00 +19°C° 0.1 mm 0 mps 683 mmHg 97%
    05:00 +19°C° 0.1 mm 0 mps 684 mmHg 97%
    06:00 +21°C° 0.1 mm 1 mps 684 mmHg 97%
    07:00 +22°C° 0.1 mm 1 mps 684 mmHg 94%
    08:00 +23°C° 0.1 mm 1 mps 685 mmHg 92%
    09:00 +24°C° 0.1 mm 1 mps 685 mmHg 89%
    10:00 +25°C° 0.4 mm 1 mps 685 mmHg 88%
    11:00 +25°C° 0.4 mm 2 mps 685 mmHg 86%
    12:00 +26°C° 0.4 mm 2 mps 684 mmHg 85%
    13:00 +25°C° 0.6 mm 2 mps 684 mmHg 87%
    14:00 +25°C° 0.6 mm 2 mps 683 mmHg 89%
    15:00 +25°C° 0.6 mm 2 mps 683 mmHg 90%
    16:00 +24°C° 0.6 mm 2 mps 683 mmHg 92%
    17:00 +23°C° 0.6 mm 2 mps 683 mmHg 94%
    18:00 +23°C° 0.6 mm 1 mps 683 mmHg 97%
    19:00 +22°C° 0.1 mm 1 mps 684 mmHg 97%
    20:00 +22°C° 0.1 mm 1 mps 684 mmHg 97%
    21:00 +21°C° 0.1 mm 1 mps 684 mmHg 97%
    22:00 +21°C° 2 mm 1 mps 684 mmHg 97%
    23:00 +21°C° 2 mm 1 mps 684 mmHg 98%
    Show more